sat.trackr.live / text

‹ back to catalog

STARLINK-31885

NORAD 59660 · 2024-084G

PAYLOAD ACTIVE UNKNOWN

§ Identity

Operator
Country
US
Launch date
2024-05-06
Launch site
AFETR
Launch vehicle
Mass (kg)
RCS (m²)

Purposes: comms

External: N2YO · Heavens-Above · Gunter

§ Orbital elements

Epoch: 2026-05-25T04:45:15.134112Z

Period
94.27 min
Inclination
43.0006°
Eccentricity
0.0001369
Mean motion
15.27600073 rev/d
Perigee alt
482.0 km
Apogee alt
483.9 km
Semi-major
6,861.1 km
B*
4.3211e-4
RAAN
326.3013°
Arg perigee
274.8632°
Mean anomaly
85.2063°
Rev number
11,611

§ Raw data

STARLINK-318851 59660U 24084G   26145.19809183  .00011655  00000+0  43211-3 0  99922 59660  43.0006 326.3013 0001369 274.8632  85.2063 15.27600073116115

JSON: /api/v1/satellites/59660 · /tle

For live sub-satellite position, see the globe view (requires WebGL).

§ Visibility from observer

Set your observer location to see the next 7 days of passes ≥ 10°. The values pass through the URL so the page stays shareable.

No JS? Fill the form by hand. The geolocation button needs JavaScript.